LOCATION_NAME,SAMPLE COLLECTION TIME,DOSE EQUIVALENT RATE (nSv/h),GAMMA COUNT RATE R02 (CPM),GAMMA COUNT RATE R03 (CPM),GAMMA COUNT RATE R04 (CPM),GAMMA COUNT RATE R05 (CPM),GAMMA COUNT RATE R06 (CPM),GAMMA COUNT RATE R07 (CPM),GAMMA COUNT RATE R08 (CPM),GAMMA COUNT RATE R09 (CPM),STATUS
NV: RENO,01/06/2012 16:41:00,,2922.00,1720.00,470.00,247.00,144.00,168.00,106.00,37.00,APPROVED
NV: RENO,01/06/2012 17:41:00,,3076.00,1859.00,501.00,286.00,156.00,187.00,114.00,41.00,APPROVED
NV: RENO,01/06/2012 18:41:00,,3124.00,1885.00,512.00,289.00,161.00,193.00,116.00,44.00,APPROVED
NV: RENO,01/06/2012 19:42:00,,3090.00,1876.00,498.00,289.00,158.00,188.00,116.00,44.00,APPROVED
NV: RENO,01/06/2012 20:42:00,,3073.00,1855.00,494.00,285.00,160.00,185.00,115.00,43.00,APPROVED
NV: RENO,01/06/2012 21:42:00,,3041.00,1840.00,496.00,279.00,157.00,185.00,114.00,43.00,APPROVED
NV: RENO,01/06/2012 22:42:00,,2969.00,1787.00,486.00,275.00,153.00,177.00,113.00,43.00,APPROVED
NV: RENO,01/06/2012 23:42:00,,2965.00,1768.00,480.00,264.00,153.00,177.00,109.00,42.00,APPROVED
NV: RENO,01/07/2012 00:43:00,,2957.00,1779.00,478.00,269.00,152.00,175.00,109.00,42.00,APPROVED
NV: RENO,01/07/2012 01:43:00,,2953.00,1766.00,480.00,268.00,152.00,177.00,111.00,43.00,APPROVED
NV: RENO,01/07/2012 02:43:00,,2956.00,1772.00,477.00,266.00,152.00,180.00,110.00,41.00,APPROVED
NV: RENO,01/07/2012 03:43:00,,2973.00,1785.00,483.00,268.00,153.00,178.00,109.00,42.00,APPROVED
NV: RENO,01/07/2012 04:44:00,,2977.00,1788.00,489.00,277.00,149.00,181.00,112.00,42.00,APPROVED
NV: RENO,01/07/2012 05:44:00,,2951.00,1790.00,490.00,273.00,154.00,183.00,116.00,42.00,APPROVED
NV: RENO,01/07/2012 06:44:00,,2927.00,1793.00,488.00,278.00,157.00,184.00,115.00,43.00,APPROVED
NV: RENO,01/07/2012 07:44:00,,2860.00,1723.00,482.00,264.00,152.00,175.00,110.00,41.00,APPROVED
NV: RENO,01/07/2012 08:44:00,,2841.00,1702.00,472.00,252.00,145.00,172.00,105.00,41.00,APPROVED
NV: RENO,01/07/2012 09:45:00,,2884.00,1720.00,475.00,261.00,147.00,174.00,109.00,42.00,APPROVED
NV: RENO,01/07/2012 10:45:00,,2821.00,1677.00,468.00,252.00,145.00,168.00,106.00,41.00,APPROVED
NV: RENO,01/07/2012 11:45:00,,2815.00,1656.00,461.00,247.00,143.00,166.00,105.00,40.00,APPROVED
NV: RENO,01/07/2012 12:45:00,,2813.00,1661.00,461.00,245.00,144.00,167.00,103.00,41.00,APPROVED
NV: RENO,01/07/2012 13:46:00,,2784.00,1647.00,468.00,239.00,144.00,166.00,102.00,37.00,APPROVED
NV: RENO,01/07/2012 14:46:00,,2799.00,1660.00,462.00,241.00,142.00,167.00,106.00,38.00,APPROVED
NV: RENO,01/07/2012 15:46:00,,2846.00,1709.00,472.00,256.00,149.00,173.00,108.00,40.00,APPROVED
NV: RENO,01/07/2012 16:46:00,,2882.00,1763.00,493.00,273.00,152.00,184.00,110.00,41.00,APPROVED
NV: RENO,01/07/2012 17:46:00,,2899.00,1762.00,485.00,270.00,155.00,178.00,112.00,42.00,APPROVED
NV: RENO,01/07/2012 18:47:00,,2873.00,1700.00,468.00,251.00,146.00,172.00,107.00,41.00,APPROVED
NV: RENO,01/07/2012 19:47:00,,2840.00,1663.00,453.00,239.00,142.00,163.00,103.00,39.00,APPROVED
NV: RENO,01/07/2012 20:47:00,,2819.00,1640.00,452.00,234.00,142.00,159.00,104.00,41.00,APPROVED
NV: RENO,01/07/2012 21:47:00,,2836.00,1639.00,447.00,238.00,142.00,157.00,100.00,38.00,APPROVED
NV: RENO,01/07/2012 22:48:00,,2832.00,1632.00,441.00,233.00,138.00,157.00,102.00,39.00,APPROVED
NV: RENO,01/07/2012 23:48:00,,2791.00,1603.00,442.00,232.00,136.00,156.00,98.00,38.00,APPROVED
NV: RENO,01/08/2012 00:48:00,,2773.00,1587.00,439.00,225.00,135.00,151.00,100.00,39.00,APPROVED
NV: RENO,01/08/2012 01:48:00,,2744.00,1577.00,435.00,221.00,134.00,151.00,96.00,37.00,APPROVED
NV: RENO,01/08/2012 02:48:00,,2729.00,1562.00,435.00,220.00,135.00,151.00,98.00,36.00,APPROVED
NV: RENO,01/08/2012 03:49:00,,2733.00,1570.00,432.00,220.00,136.00,153.00,97.00,36.00,APPROVED
NV: RENO,01/08/2012 04:49:00,,2752.00,1599.00,443.00,228.00,137.00,156.00,100.00,38.00,APPROVED
NV: RENO,01/08/2012 05:49:00,,2770.00,1609.00,448.00,234.00,142.00,157.00,101.00,38.00,APPROVED
NV: RENO,01/08/2012 06:49:00,,2776.00,1635.00,457.00,236.00,142.00,163.00,101.00,40.00,APPROVED
NV: RENO,01/08/2012 07:50:00,,2777.00,1645.00,455.00,240.00,143.00,165.00,104.00,38.00,APPROVED
NV: RENO,01/08/2012 08:50:00,,2779.00,1654.00,464.00,243.00,143.00,168.00,102.00,39.00,APPROVED
NV: RENO,01/08/2012 09:50:00,,2832.00,1685.00,471.00,246.00,145.00,172.00,108.00,38.00,APPROVED
NV: RENO,01/08/2012 10:50:00,,2812.00,1691.00,474.00,249.00,148.00,172.00,106.00,39.00,APPROVED
NV: RENO,01/08/2012 11:51:00,,2826.00,1689.00,474.00,248.00,146.00,168.00,104.00,38.00,APPROVED
NV: RENO,01/08/2012 12:51:00,,2839.00,1730.00,478.00,257.00,148.00,176.00,107.00,39.00,APPROVED
NV: RENO,01/08/2012 13:51:00,,2913.00,1788.00,500.00,269.00,154.00,183.00,113.00,40.00,APPROVED
NV: RENO,01/08/2012 14:51:00,,2927.00,1820.00,506.00,280.00,160.00,188.00,115.00,43.00,APPROVED
NV: RENO,01/08/2012 15:51:00,,2995.00,1876.00,523.00,288.00,163.00,195.00,116.00,44.00,APPROVED
NV: RENO,01/08/2012 16:52:00,,3050.00,1929.00,543.00,301.00,169.00,204.00,120.00,44.00,APPROVED
NV: RENO,01/08/2012 17:52:00,,3067.00,1925.00,529.00,305.00,165.00,199.00,121.00,46.00,APPROVED
NV: RENO,01/08/2012 18:52:00,,3055.00,1876.00,522.00,291.00,160.00,194.00,116.00,45.00,APPROVED
NV: RENO,01/08/2012 19:52:00,,2995.00,1803.00,489.00,275.00,156.00,178.00,112.00,44.00,APPROVED
NV: RENO,01/08/2012 20:53:00,,2954.00,1768.00,486.00,267.00,151.00,176.00,109.00,43.00,APPROVED
NV: RENO,01/08/2012 21:53:00,,2951.00,1754.00,478.00,262.00,151.00,175.00,109.00,44.00,APPROVED
NV: RENO,01/08/2012 22:53:00,,2922.00,1746.00,471.00,256.00,149.00,169.00,109.00,42.00,APPROVED
NV: RENO,01/08/2012 23:53:00,,2930.00,1748.00,472.00,263.00,148.00,168.00,109.00,41.00,APPROVED
NV: RENO,01/09/2012 00:53:00,,2929.00,1746.00,473.00,261.00,152.00,170.00,109.00,41.00,APPROVED
NV: RENO,01/09/2012 01:54:00,,2899.00,1730.00,475.00,259.00,149.00,167.00,108.00,42.00,APPROVED
NV: RENO,01/09/2012 02:54:00,,2895.00,1721.00,470.00,253.00,145.00,169.00,107.00,41.00,APPROVED
NV: RENO,01/09/2012 03:54:00,,2934.00,1769.00,485.00,265.00,152.00,176.00,107.00,44.00,APPROVED
NV: RENO,01/09/2012 04:54:00,,2956.00,1807.00,490.00,275.00,154.00,183.00,114.00,43.00,APPROVED
NV: RENO,01/09/2012 05:55:00,,2973.00,1830.00,502.00,283.00,158.00,186.00,115.00,45.00,APPROVED
NV: RENO,01/09/2012 06:55:00,,3031.00,1890.00,515.00,291.00,161.00,192.00,115.00,45.00,APPROVED
NV: RENO,01/09/2012 07:55:00,,3065.00,1926.00,537.00,299.00,164.00,200.00,122.00,46.00,APPROVED
NV: RENO,01/09/2012 08:55:00,,3045.00,1935.00,534.00,302.00,166.00,204.00,124.00,45.00,APPROVED
NV: RENO,01/09/2012 09:55:00,,3119.00,2021.00,559.00,320.00,172.00,214.00,127.00,46.00,APPROVED
NV: RENO,01/09/2012 10:56:00,,3130.00,2024.00,562.00,324.00,178.00,216.00,130.00,46.00,APPROVED
NV: RENO,01/09/2012 11:56:00,,3163.00,2057.00,579.00,329.00,177.00,223.00,131.00,48.00,APPROVED
NV: RENO,01/09/2012 12:56:00,,3283.00,2146.00,601.00,347.00,185.00,230.00,136.00,49.00,APPROVED
NV: RENO,01/09/2012 13:56:00,,3356.00,2218.00,620.00,361.00,190.00,248.00,141.00,50.00,APPROVED
NV: RENO,01/09/2012 14:57:00,,3372.00,2291.00,644.00,375.00,195.00,251.00,145.00,53.00,APPROVED
NV: RENO,01/09/2012 15:57:00,,3393.00,2320.00,656.00,387.00,199.00,260.00,151.00,53.00,APPROVED
NV: RENO,01/09/2012 16:57:00,,3455.00,2380.00,667.00,403.00,204.00,266.00,154.00,53.00,APPROVED
NV: RENO,01/09/2012 17:57:00,,3509.00,2441.00,669.00,428.00,209.00,276.00,159.00,58.00,APPROVED
NV: RENO,01/09/2012 18:57:00,,3479.00,2405.00,651.00,423.00,208.00,266.00,156.00,60.00,APPROVED
NV: RENO,01/09/2012 19:58:00,,3472.00,2403.00,642.00,430.00,206.00,264.00,156.00,64.00,APPROVED
NV: RENO,01/09/2012 20:58:00,,3373.00,2332.00,620.00,423.00,204.00,255.00,153.00,61.00,APPROVED
NV: RENO,01/09/2012 21:58:00,,3268.00,2189.00,590.00,387.00,194.00,237.00,142.00,57.00,APPROVED
NV: RENO,01/09/2012 22:58:00,,3107.00,2045.00,552.00,350.00,176.00,213.00,130.00,54.00,APPROVED
NV: RENO,01/09/2012 23:59:00,,3103.00,1990.00,544.00,330.00,172.00,208.00,126.00,50.00,APPROVED
NV: RENO,01/10/2012 00:59:00,,3119.00,2004.00,535.00,326.00,174.00,206.00,127.00,51.00,APPROVED
NV: RENO,01/10/2012 01:59:00,,3149.00,2025.00,543.00,335.00,174.00,208.00,128.00,52.00,APPROVED
NV: RENO,01/10/2012 02:59:00,,3244.00,2136.00,564.00,352.00,181.00,219.00,131.00,54.00,APPROVED
NV: RENO,01/10/2012 03:59:00,,3318.00,2227.00,595.00,381.00,193.00,240.00,140.00,55.00,APPROVED
NV: RENO,01/10/2012 05:00:00,,3374.00,2323.00,621.00,402.00,198.00,249.00,148.00,57.00,APPROVED
NV: RENO,01/10/2012 06:00:00,,3448.00,2410.00,644.00,425.00,204.00,262.00,155.00,60.00,APPROVED
NV: RENO,01/10/2012 07:00:00,,3454.00,2405.00,649.00,429.00,210.00,265.00,155.00,58.00,APPROVED
NV: RENO,01/10/2012 08:00:00,,3415.00,2331.00,638.00,402.00,201.00,254.00,149.00,56.00,APPROVED
NV: RENO,01/10/2012 09:01:00,,3533.00,2520.00,678.00,446.00,215.00,278.00,162.00,59.00,APPROVED
NV: RENO,01/10/2012 10:01:00,,3648.00,2629.00,721.00,475.00,223.00,295.00,169.00,61.00,APPROVED
NV: RENO,01/10/2012 11:01:00,,3641.00,2619.00,717.00,473.00,225.00,292.00,171.00,62.00,APPROVED
NV: RENO,01/10/2012 12:01:00,,3375.00,2221.00,614.00,364.00,189.00,235.00,142.00,53.00,APPROVED
NV: RENO,01/10/2012 13:01:00,,3268.00,2091.00,586.00,321.00,177.00,216.00,131.00,49.00,APPROVED
NV: RENO,01/10/2012 14:02:00,,3234.00,2036.00,570.00,302.00,169.00,208.00,125.00,48.00,APPROVED
NV: RENO,01/10/2012 16:27:00,,3132.00,1866.00,512.00,264.00,158.00,185.00,111.00,39.00,APPROVED
NV: RENO,01/10/2012 17:28:00,,3287.00,2055.00,566.00,321.00,172.00,214.00,129.00,44.00,APPROVED
NV: RENO,01/10/2012 18:28:00,,3443.00,2198.00,593.00,361.00,189.00,232.00,137.00,47.00,APPROVED
NV: RENO,01/10/2012 19:28:00,,3424.00,2204.00,591.00,371.00,192.00,234.00,140.00,52.00,APPROVED
NV: RENO,01/10/2012 20:28:00,,3308.00,2141.00,566.00,362.00,185.00,226.00,135.00,52.00,APPROVED
NV: RENO,01/10/2012 21:29:00,,3307.00,2127.00,563.00,361.00,184.00,222.00,132.00,54.00,APPROVED
NV: RENO,01/10/2012 22:29:00,,3291.00,2114.00,562.00,359.00,181.00,222.00,134.00,51.00,APPROVED
NV: RENO,01/10/2012 23:29:00,,3198.00,2048.00,545.00,344.00,176.00,217.00,130.00,51.00,APPROVED
NV: RENO,01/11/2012 00:29:00,,3198.00,2010.00,538.00,334.00,174.00,211.00,127.00,50.00,APPROVED
NV: RENO,01/11/2012 01:29:00,,3244.00,2067.00,544.00,342.00,177.00,214.00,128.00,51.00,APPROVED
NV: RENO,01/11/2012 02:30:00,,3280.00,2116.00,559.00,353.00,181.00,222.00,130.00,51.00,APPROVED
NV: RENO,01/11/2012 03:30:00,,3260.00,2107.00,564.00,351.00,182.00,222.00,132.00,51.00,APPROVED
NV: RENO,01/11/2012 04:30:00,,3258.00,2081.00,559.00,343.00,177.00,218.00,129.00,51.00,APPROVED
NV: RENO,01/11/2012 05:30:00,,3261.00,2091.00,567.00,344.00,181.00,219.00,131.00,50.00,APPROVED
NV: RENO,01/11/2012 06:31:00,,3295.00,2141.00,579.00,356.00,183.00,230.00,136.00,49.00,APPROVED
NV: RENO,01/11/2012 07:31:00,,3296.00,2170.00,589.00,362.00,190.00,231.00,136.00,51.00,APPROVED
NV: RENO,01/11/2012 08:31:00,,3304.00,2201.00,605.00,368.00,191.00,237.00,142.00,50.00,APPROVED
NV: RENO,01/11/2012 09:31:00,,3342.00,2223.00,621.00,376.00,194.00,244.00,146.00,51.00,APPROVED
NV: RENO,01/11/2012 10:31:00,,3339.00,2234.00,619.00,375.00,196.00,242.00,143.00,53.00,APPROVED
NV: RENO,01/11/2012 11:32:00,,3332.00,2238.00,616.00,370.00,192.00,246.00,147.00,52.00,APPROVED
NV: RENO,01/11/2012 12:32:00,,3353.00,2274.00,635.00,376.00,193.00,250.00,146.00,50.00,APPROVED
NV: RENO,01/11/2012 13:32:00,,3419.00,2319.00,638.00,386.00,199.00,257.00,146.00,51.00,APPROVED
NV: RENO,01/11/2012 14:32:00,,3446.00,2343.00,657.00,384.00,200.00,261.00,149.00,52.00,APPROVED
NV: RENO,01/11/2012 15:33:00,,3467.00,2357.00,664.00,383.00,202.00,262.00,149.00,54.00,APPROVED
NV: RENO,01/11/2012 16:33:00,,3494.00,2361.00,661.00,391.00,199.00,261.00,151.00,55.00,APPROVED
NV: RENO,01/11/2012 17:33:00,,3509.00,2398.00,662.00,410.00,207.00,267.00,151.00,55.00,APPROVED
NV: RENO,01/11/2012 18:33:00,,3542.00,2430.00,658.00,426.00,211.00,271.00,158.00,57.00,APPROVED
NV: RENO,01/11/2012 19:33:00,,3483.00,2390.00,637.00,415.00,205.00,262.00,151.00,59.00,APPROVED
NV: RENO,01/11/2012 20:34:00,,3308.00,2215.00,595.00,384.00,192.00,237.00,142.00,56.00,APPROVED
NV: RENO,01/11/2012 21:34:00,,3199.00,2081.00,558.00,352.00,180.00,214.00,133.00,53.00,APPROVED
NV: RENO,01/11/2012 22:34:00,,3088.00,1978.00,532.00,326.00,173.00,201.00,126.00,49.00,APPROVED
NV: RENO,01/11/2012 23:34:00,,3060.00,1932.00,518.00,309.00,164.00,196.00,121.00,50.00,APPROVED
NV: RENO,01/12/2012 00:35:00,,3021.00,1895.00,510.00,305.00,161.00,189.00,118.00,48.00,APPROVED
NV: RENO,01/12/2012 01:35:00,,3030.00,1889.00,514.00,293.00,160.00,191.00,117.00,48.00,APPROVED
NV: RENO,01/12/2012 02:35:00,,3008.00,1858.00,511.00,291.00,160.00,188.00,117.00,45.00,APPROVED
NV: RENO,01/12/2012 03:35:00,,3002.00,1851.00,511.00,288.00,160.00,189.00,117.00,45.00,APPROVED
NV: RENO,01/12/2012 04:35:00,,3016.00,1877.00,513.00,294.00,161.00,192.00,116.00,47.00,APPROVED
NV: RENO,01/12/2012 05:36:00,,3046.00,1896.00,515.00,295.00,162.00,191.00,119.00,45.00,APPROVED
NV: RENO,01/12/2012 06:36:00,,3130.00,1997.00,551.00,320.00,170.00,204.00,126.00,47.00,APPROVED
NV: RENO,01/12/2012 07:36:00,,3184.00,2079.00,561.00,340.00,178.00,218.00,134.00,49.00,APPROVED
NV: RENO,01/12/2012 08:36:00,,3248.00,2159.00,589.00,358.00,184.00,233.00,137.00,51.00,APPROVED
NV: RENO,01/12/2012 09:37:00,,3307.00,2219.00,611.00,374.00,191.00,243.00,142.00,51.00,APPROVED
NV: RENO,01/12/2012 10:37:00,,3341.00,2290.00,626.00,388.00,196.00,253.00,146.00,54.00,APPROVED
NV: RENO,01/12/2012 11:37:00,,3402.00,2370.00,651.00,407.00,204.00,265.00,153.00,54.00,APPROVED
NV: RENO,01/12/2012 12:37:00,,3452.00,2399.00,669.00,413.00,204.00,271.00,155.00,57.00,APPROVED
NV: RENO,01/12/2012 13:37:00,,3491.00,2465.00,687.00,427.00,209.00,277.00,163.00,56.00,APPROVED
NV: RENO,01/12/2012 14:38:00,,3555.00,2526.00,706.00,436.00,215.00,285.00,162.00,56.00,APPROVED
NV: RENO,01/12/2012 15:38:00,,3590.00,2582.00,726.00,449.00,224.00,292.00,166.00,59.00,APPROVED
NV: RENO,01/12/2012 16:38:00,,3728.00,2700.00,760.00,,228.00,307.00,177.00,62.00,APPROVED
NV: RENO,01/12/2012 17:38:00,,3713.00,2740.00,762.00,,239.00,317.00,177.00,65.00,APPROVED
NV: RENO,01/12/2012 18:39:00,,3813.00,2811.00,758.00,,243.00,323.00,187.00,69.00,APPROVED
NV: RENO,01/12/2012 19:39:00,,3597.00,2640.00,715.00,504.00,235.00,300.00,176.00,70.00,APPROVED
NV: RENO,01/12/2012 20:39:00,,3351.00,2302.00,619.00,422.00,202.00,249.00,151.00,60.00,APPROVED
NV: RENO,01/12/2012 21:39:00,,3198.00,2046.00,560.00,336.00,176.00,210.00,128.00,55.00,APPROVED
NV: RENO,01/12/2012 22:39:00,,3055.00,1883.00,500.00,285.00,159.00,184.00,118.00,47.00,APPROVED
NV: RENO,01/12/2012 23:40:00,,3014.00,1829.00,492.00,273.00,153.00,178.00,113.00,46.00,APPROVED
NV: RENO,01/13/2012 00:40:00,,3003.00,1808.00,492.00,265.00,150.00,174.00,110.00,45.00,APPROVED
NV: RENO,01/13/2012 01:41:00,,2980.00,1784.00,484.00,260.00,149.00,171.00,110.00,45.00,APPROVED
NV: RENO,01/13/2012 02:41:00,,2957.00,1763.00,488.00,256.00,151.00,169.00,107.00,41.00,APPROVED
NV: RENO,01/13/2012 03:42:00,,2938.00,1761.00,482.00,256.00,145.00,168.00,107.00,42.00,APPROVED
NV: RENO,01/13/2012 04:42:00,,2962.00,1763.00,487.00,256.00,149.00,171.00,109.00,43.00,APPROVED
NV: RENO,01/13/2012 05:42:00,,2939.00,1767.00,489.00,260.00,150.00,174.00,109.00,43.00,APPROVED
NV: RENO,01/13/2012 06:42:00,,2937.00,1775.00,492.00,259.00,152.00,178.00,111.00,42.00,APPROVED
NV: RENO,01/13/2012 07:42:00,,3039.00,1846.00,517.00,267.00,154.00,182.00,115.00,44.00,APPROVED
NV: RENO,01/13/2012 08:43:00,,3087.00,1882.00,526.00,279.00,161.00,193.00,116.00,45.00,APPROVED
NV: RENO,01/13/2012 09:43:00,,3052.00,1891.00,524.00,279.00,160.00,191.00,117.00,44.00,APPROVED
NV: RENO,01/13/2012 10:43:00,,3111.00,1921.00,539.00,287.00,161.00,196.00,120.00,43.00,APPROVED
NV: RENO,01/13/2012 11:43:00,,3116.00,1924.00,544.00,285.00,161.00,194.00,119.00,44.00,APPROVED
NV: RENO,01/13/2012 12:44:00,,3163.00,1960.00,547.00,293.00,163.00,204.00,122.00,46.00,APPROVED
NV: RENO,01/13/2012 13:44:00,,3155.00,1970.00,555.00,295.00,169.00,202.00,122.00,46.00,APPROVED
NV: RENO,01/13/2012 14:44:00,,3221.00,2017.00,572.00,300.00,171.00,209.00,126.00,45.00,APPROVED
NV: RENO,01/13/2012 15:17:00,,3248.00,2006.00,572.00,307.00,173.00,213.00,122.00,43.00,APPROVED
NV: RENO,01/13/2012 16:32:00,,3095.00,1826.00,503.00,259.00,155.00,180.00,107.00,39.00,APPROVED
NV: RENO,01/13/2012 17:33:00,,3229.00,1972.00,543.00,298.00,169.00,203.00,120.00,42.00,APPROVED
NV: RENO,01/13/2012 18:33:00,,3270.00,2012.00,547.00,314.00,171.00,208.00,124.00,44.00,APPROVED
NV: RENO,01/13/2012 19:33:00,,3310.00,2026.00,543.00,316.00,172.00,208.00,123.00,47.00,APPROVED
NV: RENO,01/13/2012 20:33:00,,3256.00,2001.00,531.00,316.00,170.00,200.00,122.00,44.00,APPROVED
NV: RENO,01/13/2012 21:34:00,,3230.00,1981.00,526.00,311.00,169.00,200.00,118.00,46.00,APPROVED
NV: RENO,01/13/2012 22:34:00,,3249.00,2026.00,542.00,323.00,172.00,204.00,126.00,48.00,APPROVED
NV: RENO,01/13/2012 23:34:00,,3249.00,2032.00,545.00,324.00,175.00,208.00,123.00,47.00,APPROVED
NV: RENO,01/14/2012 00:34:00,,3257.00,2036.00,540.00,331.00,173.00,207.00,124.00,47.00,APPROVED
NV: RENO,01/14/2012 01:34:00,,3215.00,2000.00,529.00,321.00,170.00,204.00,120.00,49.00,APPROVED
NV: RENO,01/14/2012 02:35:00,,3245.00,2000.00,533.00,317.00,167.00,203.00,119.00,48.00,APPROVED
NV: RENO,01/14/2012 03:35:00,,3245.00,2033.00,540.00,323.00,173.00,209.00,126.00,48.00,APPROVED
NV: RENO,01/14/2012 04:35:00,,3265.00,2066.00,557.00,334.00,176.00,215.00,127.00,50.00,APPROVED
NV: RENO,01/14/2012 05:35:00,,3284.00,2088.00,565.00,339.00,179.00,223.00,130.00,48.00,APPROVED
NV: RENO,01/14/2012 06:36:00,,3311.00,2117.00,573.00,346.00,180.00,225.00,131.00,49.00,APPROVED
NV: RENO,01/14/2012 07:36:00,,3356.00,2174.00,589.00,356.00,187.00,231.00,138.00,48.00,APPROVED
NV: RENO,01/14/2012 08:36:00,,3401.00,2228.00,609.00,366.00,187.00,242.00,139.00,52.00,APPROVED
NV: RENO,01/14/2012 09:36:00,,3403.00,2256.00,619.00,377.00,195.00,249.00,143.00,51.00,APPROVED
NV: RENO,01/14/2012 10:36:00,,3444.00,2326.00,648.00,388.00,199.00,256.00,149.00,52.00,APPROVED
NV: RENO,01/14/2012 11:37:00,,3474.00,2373.00,660.00,399.00,203.00,265.00,151.00,53.00,APPROVED
NV: RENO,01/14/2012 12:37:00,,3488.00,2375.00,669.00,397.00,204.00,265.00,151.00,52.00,APPROVED
NV: RENO,01/14/2012 13:37:00,,3498.00,2410.00,674.00,400.00,207.00,272.00,154.00,53.00,APPROVED
NV: RENO,01/14/2012 14:37:00,,3510.00,2404.00,676.00,404.00,208.00,272.00,156.00,54.00,APPROVED
NV: RENO,01/14/2012 15:38:00,,3512.00,2425.00,687.00,399.00,205.00,275.00,153.00,53.00,APPROVED
NV: RENO,01/14/2012 16:38:00,,3524.00,2432.00,693.00,405.00,208.00,273.00,158.00,55.00,APPROVED
NV: RENO,01/14/2012 17:38:00,,3599.00,2497.00,691.00,429.00,217.00,284.00,160.00,57.00,APPROVED
NV: RENO,01/14/2012 18:38:00,,3653.00,2554.00,691.00,453.00,218.00,285.00,164.00,61.00,APPROVED
NV: RENO,01/14/2012 19:38:00,,3615.00,2515.00,666.00,459.00,219.00,278.00,164.00,64.00,APPROVED
NV: RENO,01/14/2012 20:39:00,,3431.00,2382.00,628.00,432.00,209.00,258.00,152.00,63.00,APPROVED
NV: RENO,01/14/2012 21:39:00,,3290.00,2200.00,585.00,376.00,185.00,236.00,140.00,56.00,APPROVED
NV: RENO,01/14/2012 22:39:00,,3061.00,1971.00,536.00,329.00,174.00,207.00,128.00,49.00,APPROVED
NV: RENO,01/14/2012 23:39:00,,2857.00,1733.00,479.00,270.00,151.00,177.00,112.00,45.00,APPROVED
NV: RENO,01/15/2012 00:40:00,,2838.00,1666.00,458.00,244.00,141.00,164.00,106.00,39.00,APPROVED
NV: RENO,01/15/2012 01:40:00,,2837.00,1670.00,454.00,243.00,143.00,157.00,104.00,41.00,APPROVED
NV: RENO,01/15/2012 02:40:00,,2843.00,1670.00,458.00,243.00,141.00,161.00,103.00,40.00,APPROVED
NV: RENO,01/15/2012 03:40:00,,2832.00,1668.00,451.00,239.00,144.00,160.00,103.00,41.00,APPROVED
NV: RENO,01/15/2012 04:41:00,,2834.00,1661.00,447.00,238.00,143.00,159.00,103.00,40.00,APPROVED
NV: RENO,01/15/2012 05:41:00,,2821.00,1650.00,456.00,235.00,138.00,160.00,104.00,40.00,APPROVED
NV: RENO,01/15/2012 06:41:00,,2850.00,1694.00,463.00,249.00,143.00,165.00,105.00,42.00,APPROVED
NV: RENO,01/15/2012 07:41:00,,2850.00,1708.00,469.00,255.00,144.00,168.00,108.00,41.00,APPROVED
NV: RENO,01/15/2012 08:41:00,,2857.00,1721.00,468.00,259.00,149.00,172.00,107.00,41.00,APPROVED
NV: RENO,01/15/2012 09:42:00,,2846.00,1695.00,464.00,257.00,147.00,170.00,105.00,43.00,APPROVED
NV: RENO,01/15/2012 10:42:00,,2843.00,1686.00,464.00,254.00,146.00,169.00,106.00,42.00,APPROVED
NV: RENO,01/15/2012 11:42:00,,2876.00,1724.00,469.00,257.00,147.00,169.00,107.00,42.00,APPROVED
NV: RENO,01/15/2012 12:42:00,,2840.00,1682.00,463.00,248.00,144.00,165.00,105.00,40.00,APPROVED
NV: RENO,01/15/2012 13:43:00,,2863.00,1714.00,466.00,254.00,143.00,169.00,105.00,41.00,APPROVED
NV: RENO,01/15/2012 14:43:00,,2820.00,1669.00,455.00,247.00,141.00,164.00,105.00,41.00,APPROVED
NV: RENO,01/15/2012 15:43:00,,2800.00,1643.00,448.00,238.00,141.00,161.00,101.00,39.00,APPROVED
NV: RENO,01/15/2012 16:43:00,,2813.00,1635.00,449.00,235.00,139.00,157.00,103.00,39.00,APPROVED
NV: RENO,01/15/2012 17:43:00,,2820.00,1649.00,452.00,237.00,139.00,160.00,100.00,40.00,APPROVED
NV: RENO,01/15/2012 18:44:00,,2858.00,1671.00,464.00,243.00,146.00,162.00,103.00,39.00,APPROVED
NV: RENO,01/15/2012 19:44:00,,2888.00,1698.00,467.00,251.00,146.00,165.00,105.00,41.00,APPROVED
NV: RENO,01/15/2012 20:44:00,,2887.00,1723.00,466.00,255.00,147.00,169.00,107.00,41.00,APPROVED
NV: RENO,01/15/2012 21:44:00,,2867.00,1694.00,463.00,255.00,148.00,168.00,107.00,43.00,APPROVED
NV: RENO,01/15/2012 22:45:00,,2881.00,1713.00,462.00,256.00,147.00,168.00,107.00,41.00,APPROVED
NV: RENO,01/15/2012 23:45:00,,2903.00,1708.00,469.00,258.00,145.00,169.00,106.00,41.00,APPROVED
NV: RENO,01/16/2012 00:45:00,,2893.00,1715.00,471.00,255.00,148.00,169.00,107.00,40.00,APPROVED
NV: RENO,01/16/2012 01:45:00,,2859.00,1696.00,469.00,251.00,146.00,170.00,107.00,38.00,APPROVED
NV: RENO,01/16/2012 02:45:00,,2881.00,1695.00,465.00,251.00,147.00,168.00,105.00,41.00,APPROVED
NV: RENO,01/16/2012 03:46:00,,2930.00,1747.00,477.00,258.00,152.00,175.00,109.00,40.00,APPROVED
NV: RENO,01/16/2012 04:46:00,,2975.00,1818.00,498.00,278.00,157.00,188.00,114.00,44.00,APPROVED
NV: RENO,01/16/2012 05:46:00,,2939.00,1787.00,493.00,278.00,156.00,183.00,114.00,42.00,APPROVED
NV: RENO,01/16/2012 06:46:00,,2924.00,1776.00,489.00,268.00,152.00,187.00,113.00,40.00,APPROVED
NV: RENO,01/16/2012 07:47:00,,2920.00,1742.00,485.00,268.00,150.00,179.00,110.00,41.00,APPROVED
NV: RENO,01/16/2012 08:47:00,,2820.00,1645.00,468.00,241.00,144.00,171.00,102.00,39.00,APPROVED
NV: RENO,01/17/2012 16:38:00,,2861.00,1657.00,475.00,228.00,145.00,169.00,98.00,36.00,APPROVED
NV: RENO,01/17/2012 17:38:00,,2970.00,1779.00,505.00,257.00,155.00,182.00,108.00,39.00,APPROVED
NV: RENO,01/17/2012 18:39:00,,3006.00,1791.00,502.00,267.00,156.00,185.00,108.00,40.00,APPROVED
NV: RENO,01/17/2012 19:39:00,,2963.00,1748.00,484.00,260.00,152.00,180.00,109.00,38.00,APPROVED
NV: RENO,01/17/2012 20:39:00,,2911.00,1705.00,471.00,252.00,150.00,171.00,107.00,39.00,APPROVED
NV: RENO,01/17/2012 21:39:00,,2885.00,1689.00,468.00,251.00,146.00,169.00,107.00,40.00,APPROVED
NV: RENO,01/17/2012 22:40:00,,2894.00,1689.00,462.00,248.00,146.00,167.00,104.00,38.00,APPROVED
NV: RENO,01/18/2012 00:40:00,,2802.00,1611.00,440.00,237.00,141.00,160.00,101.00,39.00,APPROVED
NV: RENO,01/18/2012 01:40:00,,2755.00,1585.00,437.00,229.00,137.00,153.00,100.00,37.00,APPROVED
NV: RENO,01/18/2012 02:40:00,,2729.00,1550.00,426.00,221.00,134.00,151.00,97.00,36.00,APPROVED
NV: RENO,01/18/2012 03:41:00,,2710.00,1529.00,427.00,216.00,133.00,147.00,94.00,35.00,APPROVED
NV: RENO,01/18/2012 04:41:00,,2710.00,1521.00,424.00,216.00,131.00,147.00,97.00,36.00,APPROVED
NV: RENO,01/18/2012 05:41:00,,2710.00,1520.00,425.00,211.00,131.00,149.00,93.00,36.00,APPROVED
NV: RENO,01/18/2012 06:41:00,,2677.00,1517.00,427.00,211.00,131.00,148.00,94.00,36.00,APPROVED
NV: RENO,01/18/2012 07:41:00,,2701.00,1509.00,419.00,209.00,130.00,143.00,96.00,35.00,APPROVED
NV: RENO,01/18/2012 08:42:00,,2703.00,1515.00,422.00,210.00,131.00,146.00,94.00,35.00,APPROVED